Location: Arena
(42.5007°N, 9.4650°E)
Time: 22:46:02
(UTC+00:00)

BREEZE M DEB (TANK) - Pass Details

Date: 09 April 2020
Orbit: 313 x 13665 km, 49.6° (Epoch: 04 June)

Event Time Altitude Azimuth Distance (km) Brightness Sun altitude
Rises 20:39:35 0° 264° (W) 5,485 8.4 -27.2°
Reaches altitude 10° 20:44:55 10° 272° (W) 3,097 7.2 -27.9°
Maximum altitude 20:50:21 34° 338° (NNW) 928 4.4 -28.6°
Enters shadow 20:50:22 34° 339° (NNW) 926 4.4 -28.6°
